DEBUT (ORIZURU)

Satellite information

Favourite Embed

Satellite Type and Status

PAYLOADIN ORBIT

Key statistics

Satellite DEBUT (ORIZURU) at a glance.

Uptime

12878

Days in orbit

Revolutions

≈ 12.8

Per day

Orbit

SSO

Sun Synchronous Orbit

Inclination

99.0

Latest

Satellite identification and parameters

Extended collection of information and parameters for DEBUT (ORIZURU).

Object identification

Identified? True

Debris? True

Object name: DEBUT (ORIZURU)

International designator: 1990-013B

Object number (NORAD): 20479

Object ID (CCSDS): 20479

Country: JAPAN (JPN)

Current information (Y/N): Y

RCS size: MEDIUM

Orbital parameters

Period: 112.149 minutes

Inclination: 99.0196 deg

SMA: 7703.561 km

Apoapsis: 1739.831 km

Periapsis: 911.021 km

RAAN: 129.897 deg

Eccentricy: 0.0537939

Argument of periapsis: 319.6786 deg

Mean anomaly: 36.5567 deg

Mean motion: 12.84001316 rev/day

Mean motion (dot): 0.00000008 rev/day2

B* drag term: 0.000096364 1/REarth

Two-line elements (TLE)

Creation date: May 12, 2025, 2:31 a.m.

Reference frame: TEME

Reference center: EARTH

Epoch: May 11, 2025, 4:46 p.m. UTC

TLE line 0: 0 DEBUT (ORIZURU)

TLE line 1: 1 20479U 90013B 25131.69895301 .00000008 00000-0 96364-4 0 9998

TLE line 2: 2 20479 99.0196 129.8970 0537939 319.6786 36.5567 12.84001316652045

Live tracking on map

Real-time ground track for satellite DEBUT (ORIZURU).

In-orbit conjunctions

There are no conjunctions computed for DEBUT (ORIZURU), at the moment. Check back to stay up to date, as we update our databases every day.

Go to all conjunctions

Associated space launch

Japanese Earth observation satellite

DEBUT (ORIZURU) was lifted into orbit during the mission ‘H-1 | Momo 1b’, on board a H-1 space rocket.

The launch took place on Feb. 7, 1990, 1:33 a.m. from Osaki Launch Complex.

For more information about the launch, click the button.

Launch to space H-1 | Momo 1b
H-1 | Momo 1b

Agency: N/A

Status: Launch Successful

Launch date: Feb. 7, 1990, 1:33 a.m. UTC

Rocket: H-1

Launch pad: Osaki Launch Complex

Location: Tanegashima Space Center, Japan

...

Latest news about this satellite

There are no fresh news available about this satellite. Check back as we update our databases every day.


Newsletter sign-up

Weekly statistics, charts and insights to help you stay on top of the space industry.